AAL2229 KLAS-KLAX

Flight info

Callsign AAL2229
Flight time N/A
Altitude 28000
Route RADYR2 BLAQQ SHTNR ANJLL4
Aircraft B738/M-SDE2E3FGHIRWXY/LB1

Departure

Time 2026-05-06 12:17
Airport Harry Reid International Airport (KLAS)

Arrival

Time N/A
Airport Los Angeles International Airport (KLAX)
Time Latitude Longitude Altitude Speed Heading
2026-05-06 11:57 36.08051 -115.13650 2091 ft 0 kts 44°
2026-05-06 12:06 36.08034 -115.13670 2091 ft 4 kts 48°
2026-05-06 12:07 36.08018 -115.13696 2091 ft 4 kts 61°
2026-05-06 12:07 36.08010 -115.13724 2091 ft 4 kts 103°
2026-05-06 12:07 36.08014 -115.13737 2091 ft 0 kts 138°
2026-05-06 12:10 36.08007 -115.13729 2091 ft 7 kts 138°
2026-05-06 12:10 36.07959 -115.13672 2091 ft 10 kts 135°
2026-05-06 12:10 36.07910 -115.13610 2091 ft 10 kts 135°
2026-05-06 12:11 36.07849 -115.13583 2091 ft 10 kts 197°
2026-05-06 12:11 36.07825 -115.13654 2091 ft 10 kts 271°
2026-05-06 12:11 36.07827 -115.13735 2091 ft 9 kts 269°
2026-05-06 12:11 36.07792 -115.13790 2092 ft 9 kts 181°
2026-05-06 12:12 36.07755 -115.13738 2092 ft 9 kts 93°
2026-05-06 12:12 36.07755 -115.13663 2091 ft 9 kts 90°
2026-05-06 12:12 36.07755 -115.13579 2091 ft 11 kts 90°
2026-05-06 12:12 36.07754 -115.13475 2090 ft 13 kts 90°
2026-05-06 12:13 36.07779 -115.13383 2089 ft 11 kts 30°
2026-05-06 12:13 36.07826 -115.13319 2087 ft 11 kts 86°
2026-05-06 12:13 36.07829 -115.13219 2085 ft 12 kts 90°
2026-05-06 12:13 36.07829 -115.13104 2081 ft 15 kts 89°
2026-05-06 12:14 36.07793 -115.13019 2078 ft 12 kts 170°
2026-05-06 12:14 36.07755 -115.12947 2072 ft 12 kts 90°
2026-05-06 12:14 36.07757 -115.12829 2069 ft 16 kts 88°
2026-05-06 12:14 36.07755 -115.12684 2064 ft 18 kts 90°
2026-05-06 12:15 36.07755 -115.12519 2058 ft 20 kts 90°
2026-05-06 12:15 36.07756 -115.12339 2053 ft 21 kts 89°
2026-05-06 12:15 36.07741 -115.12240 2050 ft 11 kts 140°
2026-05-06 12:15 36.07667 -115.12233 2049 ft 10 kts 179°
2026-05-06 12:16 36.07642 -115.12277 2050 ft 0 kts 271°
2026-05-06 12:16 36.07643 -115.12423 2054 ft 48 kts 270°
2026-05-06 12:16 36.07642 -115.13117 2082 ft 111 kts 270°
2026-05-06 12:16 36.07635 -115.14306 2129 ft 160 kts 270°
2026-05-06 12:17 36.07702 -115.15721 2673 ft 168 kts 274°
2026-05-06 12:17 36.07746 -115.17134 3457 ft 165 kts 269°
2026-05-06 12:17 36.07747 -115.18661 3781 ft 192 kts 269°
2026-05-06 12:17 36.07700 -115.20406 3980 ft 214 kts 262°
2026-05-06 12:18 36.07447 -115.22324 4197 ft 234 kts 259°
2026-05-06 12:18 36.06921 -115.24264 4733 ft 243 kts 239°
2026-05-06 12:18 36.05883 -115.25918 5345 ft 253 kts 231°
2026-05-06 12:18 36.04435 -115.27266 5729 ft 273 kts 202°
2026-05-06 12:19 36.02596 -115.28006 6389 ft 281 kts 199°
2026-05-06 12:19 36.00732 -115.28782 7134 ft 285 kts 200°
2026-05-06 12:19 35.98830 -115.29572 7794 ft 291 kts 196°
2026-05-06 12:19 35.96852 -115.30127 8638 ft 293 kts 192°
2026-05-06 12:20 35.94827 -115.30599 9422 ft 298 kts 191°
2026-05-06 12:20 35.92768 -115.31067 10185 ft 303 kts 191°
2026-05-06 12:20 35.90631 -115.31559 10555 ft 324 kts 191°
2026-05-06 12:20 35.88384 -115.32088 11040 ft 337 kts 191°
2026-05-06 12:21 35.86054 -115.32645 11755 ft 343 kts 191°
2026-05-06 12:21 35.83707 -115.33213 12581 ft 345 kts 191°
2026-05-06 12:21 35.81335 -115.33790 13412 ft 349 kts 191°
2026-05-06 12:21 35.78933 -115.34378 14176 ft 354 kts 191°
2026-05-06 12:22 35.76503 -115.34973 14895 ft 359 kts 191°
2026-05-06 12:22 35.74030 -115.35578 15623 ft 364 kts 191°
2026-05-06 12:22 35.71556 -115.36183 16335 ft 369 kts 191°
2026-05-06 12:22 35.69016 -115.36805 17064 ft 375 kts 191°
2026-05-06 12:23 35.66437 -115.37435 17774 ft 381 kts 191°
2026-05-06 12:23 35.63813 -115.38076 18453 ft 386 kts 191°
2026-05-06 12:23 35.61151 -115.38707 19074 ft 391 kts 188°
2026-05-06 12:23 35.58435 -115.38820 19696 ft 393 kts 175°
2026-05-06 12:24 35.55696 -115.38553 20354 ft 397 kts 173°
2026-05-06 12:24 35.52923 -115.38264 20975 ft 401 kts 174°
2026-05-06 12:24 35.50114 -115.38021 21581 ft 406 kts 174°
2026-05-06 12:24 35.47315 -115.37814 22171 ft 410 kts 175°
2026-05-06 12:25 35.44443 -115.37851 22749 ft 418 kts 189°
2026-05-06 12:25 35.41687 -115.38980 23414 ft 419 kts 207°
2026-05-06 12:25 35.39104 -115.40624 24174 ft 416 kts 208°
2026-05-06 12:25 35.36556 -115.42311 24771 ft 417 kts 208°
2026-05-06 12:26 35.33997 -115.44008 25303 ft 419 kts 208°
2026-05-06 12:26 35.31421 -115.45697 25891 ft 420 kts 208°
2026-05-06 12:26 35.28833 -115.47373 26526 ft 419 kts 207°
2026-05-06 12:26 35.26278 -115.49014 27124 ft 420 kts 207°
2026-05-06 12:27 35.23682 -115.50672 27696 ft 420 kts 207°
2026-05-06 12:27 35.21080 -115.52331 28095 ft 423 kts 207°
2026-05-06 12:27 35.15870 -115.55652 28074 ft 421 kts 207°
2026-05-06 12:28 35.10966 -115.59506 28074 ft 420 kts 228°
2026-05-06 12:28 35.06981 -115.64742 28073 ft 421 kts 229°
2026-05-06 12:29 35.02986 -115.69928 28076 ft 422 kts 228°
2026-05-06 12:29 34.98930 -115.75118 28074 ft 422 kts 227°
2026-05-06 12:30 34.94865 -115.80290 28070 ft 421 kts 227°
2026-05-06 12:30 34.90829 -115.85415 28066 ft 421 kts 227°
2026-05-06 12:31 34.86765 -115.90571 28060 ft 421 kts 227°
2026-05-06 12:31 34.82713 -115.95706 28042 ft 420 kts 227°
2026-05-06 12:32 34.78654 -116.00840 28061 ft 420 kts 227°
2026-05-06 12:32 34.74636 -116.05934 28050 ft 419 kts 227°
2026-05-06 12:33 34.70609 -116.11067 28047 ft 419 kts 227°
2026-05-06 12:33 34.66584 -116.16193 28044 ft 419 kts 227°
2026-05-06 12:34 34.62548 -116.21320 28049 ft 419 kts 227°
2026-05-06 12:34 34.58517 -116.26433 28034 ft 419 kts 227°
2026-05-06 12:35 34.54508 -116.31510 28055 ft 420 kts 227°
2026-05-06 12:35 34.50465 -116.36624 27980 ft 421 kts 227°
2026-05-06 12:36 34.48438 -116.39185 27647 ft 419 kts 227°
2026-05-06 12:36 34.46432 -116.41717 27321 ft 415 kts 227°
2026-05-06 12:36 34.44434 -116.44237 26949 ft 412 kts 227°
2026-05-06 12:36 34.42460 -116.46729 26595 ft 409 kts 229°
2026-05-06 12:37 34.40804 -116.49495 26197 ft 402 kts 246°
2026-05-06 12:37 34.39601 -116.52524 25876 ft 397 kts 248°
2026-05-06 12:37 34.38412 -116.55544 25504 ft 396 kts 248°
2026-05-06 12:37 34.37215 -116.58533 25143 ft 394 kts 247°
2026-05-06 12:38 34.36007 -116.61500 24793 ft 392 kts 247°
2026-05-06 12:38 34.34806 -116.64414 24441 ft 391 kts 247°
2026-05-06 12:38 34.33590 -116.67354 24087 ft 389 kts 247°
2026-05-06 12:38 34.32389 -116.70295 23635 ft 391 kts 248°
2026-05-06 12:39 34.31197 -116.73259 23159 ft 391 kts 248°
2026-05-06 12:39 34.30011 -116.76221 22678 ft 390 kts 248°
2026-05-06 12:39 34.28835 -116.79150 22226 ft 382 kts 248°
2026-05-06 12:39 34.27684 -116.82010 21793 ft 373 kts 247°
2026-05-06 12:40 34.26561 -116.84798 21393 ft 364 kts 247°
2026-05-06 12:40 34.25453 -116.87548 21003 ft 364 kts 247°
2026-05-06 12:40 34.24355 -116.90274 20607 ft 365 kts 247°
2026-05-06 12:40 34.23241 -116.93035 20210 ft 366 kts 247°
2026-05-06 12:41 34.22120 -116.95805 19818 ft 366 kts 247°
2026-05-06 12:41 34.21011 -116.98575 19172 ft 368 kts 249°
2026-05-06 12:41 34.20126 -117.01449 18773 ft 364 kts 255°
2026-05-06 12:41 34.19386 -117.04355 18478 ft 359 kts 256°
2026-05-06 12:42 34.18659 -117.07258 17982 ft 359 kts 256°
2026-05-06 12:42 34.17923 -117.10085 17642 ft 355 kts 255°
2026-05-06 12:42 34.17167 -117.12900 17361 ft 350 kts 255°
2026-05-06 12:42 34.16413 -117.15675 17063 ft 345 kts 255°
2026-05-06 12:43 34.15652 -117.18444 16550 ft 347 kts 255°
2026-05-06 12:43 34.14893 -117.21203 16154 ft 346 kts 255°
2026-05-06 12:43 34.14137 -117.23944 15836 ft 342 kts 255°
2026-05-06 12:43 34.13635 -117.25765 15455 ft 346 kts 255°
2026-05-06 12:44 34.12877 -117.28516 15080 ft 344 kts 255°
2026-05-06 12:44 34.12124 -117.31249 14741 ft 342 kts 255°
2026-05-06 12:44 34.11375 -117.33959 14406 ft 339 kts 255°
2026-05-06 12:44 34.10631 -117.36652 14096 ft 336 kts 255°
2026-05-06 12:45 34.09936 -117.39297 14021 ft 324 kts 256°
2026-05-06 12:45 34.09303 -117.41854 13996 ft 311 kts 257°
2026-05-06 12:45 34.08120 -117.46621 13986 ft 286 kts 257°
2026-05-06 12:46 34.07558 -117.48864 13984 ft 273 kts 257°
2026-05-06 12:46 34.06957 -117.51003 13997 ft 268 kts 251°
2026-05-06 12:46 34.06221 -117.53078 13926 ft 270 kts 250°
2026-05-06 12:46 34.05450 -117.55164 13631 ft 273 kts 249°
2026-05-06 12:47 34.04663 -117.57296 13081 ft 283 kts 249°
2026-05-06 12:47 34.03863 -117.59483 12713 ft 286 kts 249°
2026-05-06 12:47 34.03066 -117.61680 12442 ft 285 kts 249°
2026-05-06 12:47 34.02276 -117.63864 12187 ft 282 kts 249°
2026-05-06 12:48 34.01500 -117.66011 11764 ft 281 kts 249°
2026-05-06 12:48 34.00736 -117.68185 11138 ft 287 kts 253°
2026-05-06 12:48 34.00370 -117.70542 10643 ft 285 kts 268°
2026-05-06 12:48 34.00189 -117.72909 10240 ft 283 kts 266°
2026-05-06 12:49 33.99987 -117.75261 9787 ft 281 kts 266°
2026-05-06 12:49 33.99775 -117.77590 9365 ft 279 kts 265°
2026-05-06 12:49 33.99553 -117.79900 8966 ft 275 kts 265°
2026-05-06 12:49 33.99331 -117.82177 8563 ft 272 kts 265°
2026-05-06 12:50 33.99112 -117.84431 8165 ft 269 kts 265°
2026-05-06 12:50 33.98895 -117.86665 7775 ft 266 kts 265°
2026-05-06 12:50 33.98679 -117.88889 7460 ft 267 kts 265°
2026-05-06 12:50 33.98467 -117.91070 7280 ft 263 kts 265°
2026-05-06 12:51 33.98326 -117.93256 7084 ft 261 kts 268°
2026-05-06 12:51 33.98186 -117.95422 7005 ft 255 kts 266°
2026-05-06 12:51 33.98000 -117.97532 6708 ft 250 kts 265°
2026-05-06 12:51 33.97791 -117.99595 6402 ft 244 kts 264°
2026-05-06 12:52 33.97579 -118.01589 6065 ft 234 kts 264°
2026-05-06 12:52 33.97379 -118.03466 5745 ft 219 kts 264°
2026-05-06 12:52 33.97191 -118.05230 5448 ft 205 kts 264°
2026-05-06 12:52 33.97017 -118.06867 5195 ft 194 kts 264°
2026-05-06 12:53 33.96849 -118.08456 4947 ft 189 kts 265°
2026-05-06 12:53 33.96685 -118.10018 4697 ft 186 kts 265°
2026-05-06 12:53 33.96522 -118.11567 4448 ft 187 kts 265°
2026-05-06 12:53 33.96358 -118.13123 4207 ft 187 kts 265°
2026-05-06 12:54 33.96195 -118.14679 3956 ft 187 kts 264°
2026-05-06 12:54 33.96032 -118.16228 3710 ft 186 kts 264°
2026-05-06 12:54 33.95870 -118.17765 3469 ft 183 kts 264°
2026-05-06 12:54 33.95715 -118.19245 3230 ft 178 kts 264°
2026-05-06 12:55 33.95564 -118.20685 3027 ft 168 kts 264°
2026-05-06 12:55 33.95419 -118.22071 2781 ft 165 kts 263°
2026-05-06 12:55 33.95276 -118.23443 2556 ft 166 kts 263°
2026-05-06 12:55 33.95132 -118.24821 2351 ft 164 kts 263°